Regional Weather Roundup
Issued by NWS

Home | Current Version | Previous Version | Text Only | Print | Product List | Glossary Off
Versions: 1 2 3 4 5 6 7 8 9 10 11 12 13 14 15 16 17 18 19 20 21 22 23 24 25 26 27 28 29 30 31 32 33 34 35 36 37 38 39 40 41 42 43 44 45 46 47 48 49 50

000
ASUS43 KMPX 020010
RWRMN
WEATHER ROUNDUP FOR MINNESOTA
NATIONAL WEATHER SERVICE TWIN CITIES/CHANHASSEN MN
700 PM CDT WED OCT 01 2014


NOTE: "FAIR" INDICATES FEW OR NO CLOUDS BELOW 12,000 FEET WITH NO
SIGNIFICANT WEATHER AND/OR OBSTRUCTIONS TO VISIBILITY. N/A MEANS
CURRENT SKY AND/OR WEATHER CONDITIONS ARE NOT AVAILABLE.

MNZ060>063-068>070-020100-
   Twin Cities Metro

CITY           SKY/WX    TMP DP  RH WIND       PRES   REMARKS
TWIN CITIES    CLOUDY    57  55  93 SE6       29.80R FOG
6HR MIN TEMP:  51; 6HR MAX TEMP:  57; 6HR PCP:  0.03;

ST PAUL        CLOUDY    57  56  96 SE3       29.81R FOG
CRYSTAL        CLOUDY    57  54  89 SE6       29.78R FOG
BLAINE         CLOUDY    57  57 100 SE5       29.80R FOG
LAKEVILLE      CLOUDY    55  55 100 CALM      29.80R FOG
EDEN PRAIRIE   CLOUDY    58  56  93 SE6       29.79R FOG
6HR MIN TEMP:  53; 6HR MAX TEMP:  58; 6HR PCP:  0.02;

SOUTH ST PAUL  CLOUDY    57  55  95 CALM      29.80R FOG
LAKE ELMO      CLOUDY    55  55 100 SE3       29.82R FOG
$$
MNZ001>005-007-008-013>017-022>024-027-028-020100-
   Northwest Minnesota

CITY           SKY/WX    TMP DP  RH WIND       PRES   REMARKS
BEMIDJI        CLOUDY    56  53  89 S9        29.71R
HALLOCK        MOCLDY    63  52  67 SW17G24   29.62R
ROSEAU         MOCLDY    61  55  82 SW8       29.62R
WARROAD        CLOUDY    59  55  88 SW9       29.62R
THIEF RVR FALL CLOUDY    61  52  72 SW14      29.67R
CROOKSTON      CLOUDY    63  54  72 W9        29.68R
FOSSTON        CLOUDY    61  50  67 SW12      29.70R
DETROIT LAKES  MOCLDY    63  50  63 W10       29.75R
PARK RAPIDS    CLOUDY    57  54  89 S10       29.73R FOG
MAHNOMEN       CLOUDY    61  50  67 W12       29.71R
$$
MNZ006-009>011-018-025>026-020100-
   North Central Minnesota

CITY           SKY/WX    TMP DP  RH WIND       PRES   REMARKS
BAUDETTE       CLOUDY    57  53  86 S10       29.64R
FLAG ISLAND    CLOUDY    57  55  94 S14       29.59R
INTL FALLS     CLOUDY    54  49  83 S9        29.69R
6HR MIN TEMP:  52; 6HR MAX TEMP:  55;

WASKISH        CLOUDY    55  54  94 S8        29.68R
BIG FORK       CLOUDY    54  50  87 S8        29.73R
LONGVILLE      CLOUDY    54  52  94 S7        29.74S FOG
GRAND RAPIDS   CLOUDY    52  48  87 S10       29.76R
CRANE LAKE     CLOUDY    48  48 100 S6        29.75R
ORR            CLOUDY    50  46  87 S9G16     29.72R
COOK           CLOUDY    50  48  93 SE10      29.75S
WALKER         CLOUDY    54  52  95 S7        29.73R FOG
$$
MNZ012-019>021-037-020100-
   Northeast Minnesota

CITY           SKY/WX    TMP DP  RH WIND       PRES   REMARKS
DULUTH         FOG       51  48  89 S7        29.80R VSB 1
6HR MIN TEMP:  49; 6HR MAX TEMP:  51; 6HR PCP:  0.26;

ELY            CLOUDY    48  46  93 S6        29.77R
HIBBING        CLOUDY    51  48  89 S9        29.77R
DULUTH HARBOR  CLOUDY    52  52 100 CALM      29.81R
TWO HARBORS    CLOUDY    48  45  87 E3        29.79R HAZE
SILVER BAY     DRZL/FOG  46  46 100 E5        29.79S VSB 1/4
GRAND MARAIS     N/A     50  48  93 NE6       29.81F
G MARAIS ARPRT LGT RAIN  46  43  87 SE5       29.81F VSB 1/4
$$
MNZ029>031-032-039>041-046>048-054>057-064-020100-
   West Central Minnesota

CITY           SKY/WX    TMP DP  RH WIND       PRES   REMARKS
FERGUS FALLS   PTCLDY    63  46  55 W9        29.75R
WHEATON        PTCLDY    63  50  63 NW9       29.78R
MORRIS         CLEAR     64  52  63 NW10      29.74R
ALEXANDRIA     MOCLDY    62  58  86 S6        29.76R
ELBOW LAKE     FAIR      61  51  69 NW7       29.75R
WADENA         CLOUDY    57  55  94 CALM      29.74R FOG
GLENWOOD       CLEAR     61  57  88 SW3       29.76R
APPLETON       CLEAR     68  50  52 NW7       29.74R
BENSON         PTCLDY    63  57  82 SW3       29.75R
ORTONVILLE     CLEAR     66  52  59 NW6       29.76R
MADISON        CLEAR     70  52  52 NW7       29.75R
WILLMAR        FAIR      64  55  72 SE6       29.77R
$$
MNZ033>034-036-042>043-049>051-058-059-020100-
   Central Minnesota

CITY           SKY/WX    TMP DP  RH WIND       PRES   REMARKS
ST CLOUD       CLOUDY    58  53  84 SE10      29.78R
6HR MIN TEMP:  55; 6HR MAX TEMP:  59;

SAUK CENTRE    FAIR      59  55  89 SE5       29.76R
PAYNESVILLE    PTCLDY    58  54  87 E9        29.77R
AITKIN         CLOUDY    55  50  82 S6        29.77R HAZE
PINE RIVER     CLOUDY    54  54 100 S7        29.79R FOG
BRAINERD       CLOUDY    52  51  97 S7        29.77R FOG
STAPLES        CLOUDY    55  54  94 S7        29.76R
LONG PRAIRIE   FAIR      55  54  94 SE6       29.77R
LITTLE FALLS   CLOUDY    55  52  88 SE5       29.77R
LITCHFIELD     MOCLDY    61  57  88 SE7       29.77S
BUFFALO        CLOUDY    57  53  88 S3        29.80R
MAPLE LAKE     CLOUDY    58  56  92 S5        29.79R
$$
MNZ037-044-045-052-053-020100-
   East Central Minnesota

CITY           SKY/WX    TMP DP  RH WIND       PRES   REMARKS
PRINCETON      CLOUDY    55  54  94 SE2       29.79R
MORA           CLOUDY    52  50  93 S5        29.81R
CAMBRIDGE      CLOUDY    57  48  72 SE5       29.78R HAZE
RUSH CITY      CLOUDY    53  52  95 SE7       29.80R
MOOSE LAKE     CLOUDY    50  50 100 S6        29.78R
HINCKLEY       CLOUDY    52  52 100 S3        29.81R FOG
CLOQUET        CLOUDY    50  48  93 S5        29.79R
MCGREGOR       CLOUDY    50  50 100 S7        29.79R
$$
MNZ071>073-080-081-089-090-097-098-020100-
   Southwest Minnesota

CITY           SKY/WX    TMP DP  RH WIND       PRES   REMARKS
MONTEVIDEO     MOCLDY    64  59  82 S8        29.76R
GRANITE FALLS  PTCLDY    63  58  83 CALM      29.76R
CANBY          PTCLDY    66  51  59 NW6       29.76R
MARSHALL       MOCLDY    66  57  72 NE9       29.74R
REDWOOD FALLS  LGT RAIN  61  57  87 SE8       29.74S
OLIVIA         PTCLDY    61  57  88 SE5       29.74S
PIPESTONE      PTCLDY    66  52  59 NW6       29.77R
WINDOM         MOCLDY    66  57  72 CALM      29.77R
WORTHINGTON    MOCLDY    66  61  82 N6        29.77R
JACKSON        PTCLDY    66  55  68 SE6       29.78R
TRACY          PTCLDY    66  58  74 SW3       29.75R
SLAYTON        PTCLDY    67  55  66 W6        29.77R
$$
MNZ065>067-074>077-082>085-091>093-020100-
   South Central Minnesota

CITY           SKY/WX    TMP DP  RH WIND       PRES   REMARKS
MANKATO        CLOUDY    61  54  77 SE9       29.78R
NEW ULM        PTCLDY    61  59  94 SE7       29.77R
ST JAMES       PTCLDY    64  59  82 E6        29.78R
FAIRMONT       PTCLDY    64  55  72 E3        29.78R
GLENCOE        CLOUDY    59  57  94 SE6       29.78R
FARIBAULT      CLOUDY    61  57  88 SE3       29.80R FOG
OWATONNA       PTCLDY    61  57  88 SE7       29.80R FOG
WASECA         CLOUDY    59  54  82 SE3       29.82R HAZE
ALBERT LEA     PTCLDY    59  59 100 SE5       29.80R FOG
$$
MNZ078>079-086>088-094>096-020100-
   Southeast Minnesota

CITY           SKY/WX    TMP DP  RH WIND       PRES   REMARKS
ROCHESTER      CLOUDY    58  56  93 SE6       29.83R FOG
6HR MIN TEMP:  55; 6HR MAX TEMP:  59; 6HR PCP:  0.14;

RED WING       CLOUDY    57  55  94 SE5       29.81R FOG
STANTON        CLOUDY    60  56  88 SE3       29.79R FOG
DODGE CENTER   CLOUDY    59  57  94 CALM      29.82R FOG
WINONA         CLOUDY    59  55  88 CALM      29.82R
AUSTIN         CLOUDY    61  57  88 CALM      29.81R
PRESTON        MOCLDY    56  54  91 NW3       29.82R
$$
ABBREVIATIONS USED IN REMARKS
   TC - TEMPERATURES IN CELSIUS
  WCI - WIND CHILL INDEX
   HX - HEAT INDEX
  VSB - VISIBILITY
$$


USA.gov is the U.S. government's official web portal to all federal, state and local government web resources and services.